Location: Heidgraben
(53.7081°N, 9.6576°E)
Time: 04:03:51
(UTC+00:00)

Cosmos 1400 Rocket - Pass Details

Date: 05 July 2020
Orbit: 521 x 568 km, 81.2° (Epoch: 06 August)

Event Time Altitude Azimuth Distance (km) Brightness Sun altitude
Rises 21:07:11 0° 339° (NNW) 2,734 8.5 -7.9°
Reaches altitude 10° 21:09:33 10° 328° (NNW) 1,826 7.2 -8.1°
Maximum altitude 21:13:03 29° 268° (W) 1,006 4.5 -8.4°
Drops below altitude 10° 21:16:29 10° 207° (SSW) 1,787 5.1 -8.6°
Enters shadow 21:18:17 - 198° (SSW) 2,470 5.7 -8.8°
